SCP
0 0 0 0 0 0 0 0 0 0 0 0 0 0 0 0 0 0 0 0 0 0 0 0 0 0 0 0 0 0 0 0 0 0 0 0 0 0 -0 0 0 0 0
0 0 0 0 0 0 0 0 0 0 0 0 0 0 0 0 0 0 0 0 0 0 0 0 0 0 0 0 0 0 0 0 0 0 0 0 0 0 -0 -0 0 0 0
0 0 0 0 0 0 0 0 0 0 0 0 0 0 0 0 0 0 0 0 0 0 0 0 0 0 0 0 0 0 0 0 0 0 0 0 0 -0 -0 0 0 0 0
0 0 0 0 0 0 0 0 0 0 0 0 0 0 0 0 0 0 0 0 0 0 0 0 0 0 0 0 0 0 0 0 0 0 0 0 0 0 -0 -0 0 0 0
0 0 0 0 0 0 0 0 0 0 0 0 0 0 0 0 0 0 0 0 0 0 0 0 0 0 0 0 0 0 0 0 0 0 0 0 0 0 0 0 0 0 0
0 0 0 0 0 0 0 0 0 0 0 0 0 0 0 0 0 0 0 0 0 0 0 0 0 0 0 0 0 0 0 0 0 0 0 0 0 0 -0 0 0 0 0
0 0 0 0 0 0 0 0 0 0 0 0 0 0 0 0 0 0 0 0 0 0 0 0 0 0 0 0 0 0 0 0 0 0 0 0 0 0 0 0 0 0 0
0 0 0 0 0 0 0 0 0 0 0 0 0 0 0 0 0 0 0 0 0 0 0 0 0 0 0 0 0 0 0 0 0 0 0 0 0 0 0 0 0 0 0
0 0 0 0 0 0 0 0 0 0 0 0 0 0 0 0 0 0 0 0 0 0 0 0 0 0 0 0 0 0 0 0 0 0 0 0 0 0 0 0 0 0 0
0 0 0 0 0 0 0 0 0 0 0 0 0 0 0 0 0 0 0 0 0 0 0 0 0 0 0 -0 0 0 0 0 0 0 0 0 0 0 0 0 0 0 0
0 0 0 0 0 0 0 0 0 0 0 0 0 0 0 0 0 0 0 0 0 0 0 0 0 0 -0 0 0 0 0 0 0 0 0 0 0 0 0 0 0 0 0
0 0 0 0 0 0 0 0 0 0 0 0 0 0 0 0 0 0 0 0 0 0 0 0 0 0 0 0 0 0 0 0 0 0 -0 0 0 0 0 0 0 0 0
0 0 0 0 0 0 0 0 0 0 0 0 0 0 0 0 0 0 0 0 0 0 0 0 0 0 0 0 0 0 0 0 0 0 0 -0 0 0 0 0 0 0 0
0 0 0 0 0 0 0 0 0 0 0 0 0 0 0 0 0 0 0 0 0 0 0 0 0 0 0 0 0 0 0 0 0 0 0 0 0 0 0 0 0 0 0
0 0 0 0 0 0 0 0 0 0 0 0 0 0 0 0 0 0 0 0 0 0 0 0 0 0 0 0 0 0 0 0 0 0 0 0 0 0 0 0 0 -0 0
0 0 0 0 0 0 0 0 0 0 0 0 0 0 0 0 0 0 0 0 0 0 0 0 0 0 0 0 0 0 0 0 0 0 0 0 0 0 0 0 0 0 0
0 0 0 0 0 0 0 0 0 0 0 0 0 0 0 0 0 0 0 0 0 0 0 0 0 0 0 0 0 0 0 0 0 0 0 -0 0 0 0 0 0 0 0
0 0 0 0 0 0 0 0 0 0 0 0 0 0 0 0 0 0 0 0 0 0 0 0 0 0 0 0 0 0 0 0 0 0 0 0 0 0 0 0 -0 0 0
0 0 0 0 0 0 0 0 0 0 0 0 0 0 0 0 0 0 0 0 0 0 0 0 0 0 0 0 0 0 0 0 0 0 0 0 0 0 0 0 -0 0 0
0 0 0 0 0 0 0 0 0 0 0 0 0 0 0 0 0 0 0 0 0 0 0 0 0 0 0 0 0 0 0 0 0 0 0 0 -0 0 0 0 -0 0 0
0 0 0 0 0 0 0 0 0 0 0 0 0 0 0 0 0 0 0 0 0 0 0 0 0 0 0 0 0 0 0 0 0 0 0 0 0 -0 0 0 -0 0 0
0 0 0 0 0 0 0 0 0 0 0 0 0 0 0 0 0 0 0 0 0 0 0 0 0 0 0 0 0 0 0 0 0 0 0 0 -0 -0 0 0 0 0 0
0 0 0 0 0 0 0 0 0 0 0 0 0 0 0 0 0 0 0 0 0 0 0 0 0 0 0 0 0 0 0 0 0 0 0 0 -0 0 0 0 0 0 0
0 0 0 0 0 0 0 0 0 0 0 0 0 0 0 0 0 0 0 0 0 0 0 0 0 0 0 0 0 0 0 0 0 0 0 0 0 -0 -0 -0 0 0 0
0 0 0 0 0 0 0 0 0 0 0 0 0 0 0 0 0 0 0 0 0 0 0 0 0 0 0 0 0 0 0 0 0 0 0 0 0 0 -0 -0 0 0 0
0 0 0 0 0 0 0 0 0 0 0 0 0 0 0 0 0 0 0 0 0 0 0 0 0 0 0 0 0 0 0 0 0 0 0 0 0 0 0 0 0 0 0
Wind_Speed_500mb
3 6 12 14 14 18 13 22 29 30 29 30 31 31 30 30 33 39 42 36 42 43 42 44 48 48 51 53 55 50 57 59 54 57 56 51 50 63 67 55 41 40 32
7 11 14 15 12 17 20 21 27 29 29 28 26 26 28 32 37 36 37 43 50 39 43 43 48 40 42 52 54 56 57 55 52 54 51 50 46 57 63 60 41 34 26
5 13 15 16 12 14 18 22 22 27 29 34 32 31 32 34 36 42 44 54 60 35 38 44 43 39 53 55 54 51 51 55 55 50 53 49 43 51 66 60 44 32 20
13 10 12 13 18 18 17 25 27 30 31 33 32 30 29 29 46 50 59 59 45 24 39 40 39 39 45 48 46 49 52 47 49 54 49 50 52 45 58 67 57 38 25
5 8 12 15 16 20 23 26 25 26 30 32 32 30 35 46 43 54 50 50 39 36 35 39 38 48 43 41 46 52 52 45 50 51 51 48 50 47 51 62 60 49 27
7 9 9 14 16 18 24 24 29 30 38 34 31 33 42 51 51 53 52 51 39 41 44 48 48 43 40 45 51 52 51 44 54 53 45 43 48 45 47 57 56 57 44
7 7 12 15 19 21 24 28 29 34 37 37 33 35 46 53 55 55 53 48 47 48 52 55 56 54 53 53 52 58 59 48 35 41 40 36 44 42 44 49 48 54 37
7 10 13 16 20 23 25 26 31 33 34 38 38 37 50 58 52 54 58 56 45 61 57 56 53 52 55 54 56 57 62 53 43 42 39 35 38 37 31 34 39 49 26
9 12 14 16 21 24 24 30 33 32 36 35 36 42 46 51 52 47 47 60 50 62 62 65 51 51 48 53 56 65 57 45 40 47 45 26 26 26 26 29 31 39 29
10 12 14 18 23 26 27 31 35 31 33 35 38 41 47 43 26 33 52 63 73 76 75 60 53 58 59 65 67 54 46 48 45 47 23 14 19 21 15 19 27 32 32
10 11 14 19 24 23 29 34 32 33 38 46 49 47 29 32 38 49 58 69 75 72 64 60 55 54 53 46 47 43 39 40 40 36 34 27 21 12 6 13 21 20 27
9 12 17 21 24 22 33 30 34 38 33 34 35 36 31 43 51 54 58 59 58 56 55 52 44 53 48 42 36 35 33 27 26 35 33 24 23 20 18 13 14 18 15
12 16 20 22 24 25 29 29 30 31 30 38 37 34 39 43 47 51 62 58 54 52 54 43 44 52 47 39 37 34 26 28 27 33 30 23 22 19 12 14 12 14 9
15 17 19 18 26 22 31 28 33 33 34 31 28 33 38 38 40 64 59 58 52 51 54 53 43 38 33 33 32 32 30 25 30 30 27 21 22 16 12 13 12 5 19
16 19 21 24 20 27 28 32 35 35 36 29 34 41 43 48 48 61 53 58 53 50 53 48 49 50 48 40 32 27 23 26 28 28 24 18 18 15 12 9 9 3 2
17 18 23 23 23 28 30 33 37 41 25 32 41 48 52 48 53 57 49 55 51 50 48 49 49 49 48 44 41 36 25 25 26 26 21 15 14 16 17 6 10 6 3
20 22 25 25 28 25 30 28 34 35 35 37 47 49 58 56 53 49 51 57 50 51 50 50 47 48 47 44 40 37 35 26 20 21 18 12 10 16 14 7 9 8 4
21 23 22 26 21 25 30 32 32 31 27 31 34 52 52 48 50 36 44 51 56 60 56 53 50 49 47 44 41 39 34 31 23 20 13 8 10 16 13 8 9 7 3
17 19 35 19 21 25 28 30 30 26 30 34 53 54 49 49 31 31 42 48 50 63 66 57 52 52 49 46 42 39 35 30 26 19 13 8 7 14 11 8 7 2 3
18 23 29 24 25 26 29 27 29 30 34 46 47 52 59 50 34 39 48 57 62 65 69 62 57 53 50 46 45 41 37 30 26 22 17 12 11 13 10 6 1 2 2
15 22 23 25 24 26 28 29 25 31 37 42 39 50 47 38 38 40 41 48 59 64 68 63 60 54 49 46 45 44 41 35 29 25 21 17 17 15 11 6 2 5 6
18 19 19 21 24 24 26 21 27 34 35 40 47 46 46 42 40 40 40 48 59 62 63 59 58 53 49 49 48 47 45 41 33 27 24 21 20 17 12 10 9 10 9
16 17 20 21 21 28 24 24 26 35 32 39 44 46 55 55 48 46 43 45 55 61 62 59 59 55 54 51 50 49 49 47 39 31 26 21 19 18 20 18 16 15 14
17 18 21 22 24 25 24 22 31 32 32 36 46 52 55 57 54 51 48 47 54 59 61 63 60 59 56 54 52 48 46 43 36 29 24 22 17 17 21 24 23 21 20
15 19 20 23 24 24 25 24 34 28 30 36 50 47 52 61 59 56 52 51 59 64 66 64 62 60 56 52 50 43 38 31 27 23 12 4 10 16 21 24 27 24 28
16 19 20 22 23 23 26 25 32 29 31 40 43 46 53 62 61 59 57 55 59 63 67 65 63 59 55 52 48 39 28 29 30 28 28 25 14 15 24 29 31 29 30
Wind_Direction_500mb
66 301 320 319 312 329 319 323 336 343 351 347 344 333 329 331 320 313 318 314 303 313 317 310 308 309 311 315 322 326 319 324 319 319 323 334 336 332 337 336 333 332 330
301 308 318 326 338 324 341 337 336 343 346 336 331 329 329 325 323 315 304 302 316 308 319 302 309 317 317 317 319 322 314 320 327 319 326 340 334 330 332 340 338 344 336
280 304 333 356 348 323 318 330 335 328 348 350 349 350 343 344 313 308 309 315 317 313 324 312 315 310 318 320 319 319 318 319 321 327 326 334 330 333 332 343 351 348 351
325 336 351 297 330 343 326 309 332 351 347 344 348 347 335 326 323 317 322 324 327 331 318 313 318 317 326 317 316 322 322 318 319 324 325 324 326 334 332 345 346 357 356
331 301 303 342 324 320 331 333 329 329 333 337 339 342 317 328 319 346 350 348 344 333 325 322 317 310 311 310 315 320 327 324 325 320 320 318 325 335 340 342 344 348 358
312 341 331 327 325 323 328 330 326 317 323 337 331 327 325 330 336 345 353 351 342 338 330 321 316 317 312 309 308 314 324 323 325 317 314 321 327 332 331 337 341 349 346
17 338 319 325 324 322 319 324 327 321 322 324 322 324 319 328 329 328 336 348 347 333 328 328 323 319 312 312 313 313 320 307 304 322 326 314 319 324 327 331 336 339 329
340 320 322 320 319 320 328 325 315 320 321 319 323 321 316 326 324 321 332 337 331 333 329 327 325 316 316 316 316 318 321 316 301 304 316 304 306 309 314 329 326 332 324
318 317 315 320 320 324 323 316 324 327 326 332 322 315 308 326 312 315 325 331 332 322 322 324 320 318 311 307 311 314 318 316 317 312 286 283 293 315 306 316 331 344 345
293 309 321 324 322 319 331 323 322 324 325 313 321 329 331 322 321 325 333 334 331 328 327 327 321 316 311 309 311 316 312 314 312 329 319 289 308 321 320 333 337 346 349
321 316 326 318 316 336 308 320 333 332 330 332 331 334 321 357 351 343 336 330 326 327 329 329 325 320 316 317 318 320 310 313 320 329 325 305 307 309 322 334 337 332 344
327 335 319 321 320 317 326 333 335 335 340 331 333 346 343 346 336 327 325 335 341 344 343 345 348 343 340 342 334 323 335 328 327 326 315 314 306 292 300 311 344 332 337
341 327 326 323 328 315 330 327 339 330 332 341 340 335 328 327 324 323 337 343 345 350 345 342 341 353 354 348 333 336 335 326 325 326 331 325 312 320 303 298 283 315 299
326 325 323 331 325 336 338 337 322 321 314 321 328 334 338 335 330 339 342 343 345 350 351 358 349 335 336 338 339 340 333 327 329 334 334 336 347 339 325 326 322 8 11
329 350 328 315 332 342 336 330 328 315 312 321 341 351 346 345 340 342 342 343 340 348 346 350 354 357 359 356 347 338 341 329 333 335 339 341 353 348 348 351 350 305 4
345 330 334 345 343 337 335 342 336 324 327 351 354 348 345 342 341 343 344 346 347 342 343 351 352 354 352 351 350 348 336 326 324 329 333 330 349 343 354 356 351 348 299
327 323 331 332 328 328 341 340 334 335 352 357 348 337 338 334 338 335 342 344 349 351 353 352 348 349 348 348 342 344 343 344 327 322 322 323 335 340 338 351 346 335 302
325 347 331 329 323 334 335 337 338 342 344 344 336 335 335 332 332 335 337 339 341 353 353 349 344 343 343 340 340 340 336 341 340 324 323 334 339 331 324 336 330 350 3
332 327 335 343 351 335 341 338 342 342 350 339 336 334 334 327 344 338 329 335 345 352 352 349 345 340 339 336 334 333 332 330 328 329 323 306 299 310 321 311 323 338 80
323 320 350 346 337 341 344 342 346 347 351 338 340 333 334 343 352 341 341 344 344 345 346 344 345 342 339 336 333 331 324 319 316 309 305 290 261 276 306 311 334 136 88
339 336 338 347 341 343 342 344 352 359 348 344 336 336 340 346 342 341 342 337 332 337 341 340 342 343 341 337 334 332 329 321 310 302 293 284 274 266 258 256 179 121 99
2 334 336 338 340 342 334 337 1 354 348 342 337 348 352 352 346 342 338 335 330 339 341 341 344 346 342 339 335 331 328 326 321 304 291 282 267 255 248 223 189 157 150
349 341 341 342 341 346 348 344 359 352 347 342 345 353 1 359 354 346 339 335 335 342 344 348 347 344 343 338 335 332 328 326 318 307 293 276 260 245 230 218 203 182 168
349 344 343 343 345 348 351 351 1 352 345 346 344 351 360 1 356 350 347 345 343 346 352 350 349 347 341 340 339 339 337 331 325 312 289 274 256 228 216 209 200 191 181
347 348 349 348 348 347 348 352 355 352 352 346 347 354 349 358 356 354 351 355 353 353 349 350 351 351 348 347 350 356 356 356 357 5 359 296 219 205 197 191 189 182 174
356 351 353 352 351 349 350 352 352 349 350 342 349 350 349 356 354 353 352 356 354 351 350 351 354 357 355 357 2 5 21 43 45 53 60 64 87 149 173 174 171 168 168
Wind_Speed_850mb
3 6 12 14 14 18 13 22 29 30 29 30 31 31 30 30 33 39 42 36 42 43 42 44 48 48 51 53 55 50 57 59 54 57 56 51 50 63 67 55 41 40 32
7 11 14 15 12 17 20 21 27 29 29 28 26 26 28 32 37 36 37 43 50 39 43 43 48 40 42 52 54 56 57 55 52 54 51 50 46 57 63 60 41 34 26
5 13 15 16 12 14 18 22 22 27 29 34 32 31 32 34 36 42 44 54 60 35 38 44 43 39 53 55 54 51 51 55 55 50 53 49 43 51 66 60 44 32 20
13 10 12 13 18 18 17 25 27 30 31 33 32 30 29 29 46 50 59 59 45 24 39 40 39 39 45 48 46 49 52 47 49 54 49 50 52 45 58 67 57 38 25
5 8 12 15 16 20 23 26 25 26 30 32 32 30 35 46 43 54 50 50 39 36 35 39 38 48 43 41 46 52 52 45 50 51 51 48 50 47 51 62 60 49 27
7 9 9 14 16 18 24 24 29 30 38 34 31 33 42 51 51 53 52 51 39 41 44 48 48 43 40 45 51 52 51 44 54 53 45 43 48 45 47 57 56 57 44
7 7 12 15 19 21 24 28 29 34 37 37 33 35 46 53 55 55 53 48 47 48 52 55 56 54 53 53 52 58 59 48 35 41 40 36 44 42 44 49 48 54 37
7 10 13 16 20 23 25 26 31 33 34 38 38 37 50 58 52 54 58 56 45 61 57 56 53 52 55 54 56 57 62 53 43 42 39 35 38 37 31 34 39 49 26
9 12 14 16 21 24 24 30 33 32 36 35 36 42 46 51 52 47 47 60 50 62 62 65 51 51 48 53 56 65 57 45 40 47 45 26 26 26 26 29 31 39 29
10 12 14 18 23 26 27 31 35 31 33 35 38 41 47 43 26 33 52 63 73 76 75 60 53 58 59 65 67 54 46 48 45 47 23 14 19 21 15 19 27 32 32
10 11 14 19 24 23 29 34 32 33 38 46 49 47 29 32 38 49 58 69 75 72 64 60 55 54 53 46 47 43 39 40 40 36 34 27 21 12 6 13 21 20 27
9 12 17 21 24 22 33 30 34 38 33 34 35 36 31 43 51 54 58 59 58 56 55 52 44 53 48 42 36 35 33 27 26 35 33 24 23 20 18 13 14 18 15
12 16 20 22 24 25 29 29 30 31 30 38 37 34 39 43 47 51 62 58 54 52 54 43 44 52 47 39 37 34 26 28 27 33 30 23 22 19 12 14 12 14 9
15 17 19 18 26 22 31 28 33 33 34 31 28 33 38 38 40 64 59 58 52 51 54 53 43 38 33 33 32 32 30 25 30 30 27 21 22 16 12 13 12 5 19
16 19 21 24 20 27 28 32 35 35 36 29 34 41 43 48 48 61 53 58 53 50 53 48 49 50 48 40 32 27 23 26 28 28 24 18 18 15 12 9 9 3 2
17 18 23 23 23 28 30 33 37 41 25 32 41 48 52 48 53 57 49 55 51 50 48 49 49 49 48 44 41 36 25 25 26 26 21 15 14 16 17 6 10 6 3
20 22 25 25 28 25 30 28 34 35 35 37 47 49 58 56 53 49 51 57 50 51 50 50 47 48 47 44 40 37 35 26 20 21 18 12 10 16 14 7 9 8 4
21 23 22 26 21 25 30 32 32 31 27 31 34 52 52 48 50 36 44 51 56 60 56 53 50 49 47 44 41 39 34 31 23 20 13 8 10 16 13 8 9 7 3
17 19 35 19 21 25 28 30 30 26 30 34 53 54 49 49 31 31 42 48 50 63 66 57 52 52 49 46 42 39 35 30 26 19 13 8 7 14 11 8 7 2 3
18 23 29 24 25 26 29 27 29 30 34 46 47 52 59 50 34 39 48 57 62 65 69 62 57 53 50 46 45 41 37 30 26 22 17 12 11 13 10 6 1 2 2
15 22 23 25 24 26 28 29 25 31 37 42 39 50 47 38 38 40 41 48 59 64 68 63 60 54 49 46 45 44 41 35 29 25 21 17 17 15 11 6 2 5 6
18 19 19 21 24 24 26 21 27 34 35 40 47 46 46 42 40 40 40 48 59 62 63 59 58 53 49 49 48 47 45 41 33 27 24 21 20 17 12 10 9 10 9
16 17 20 21 21 28 24 24 26 35 32 39 44 46 55 55 48 46 43 45 55 61 62 59 59 55 54 51 50 49 49 47 39 31 26 21 19 18 20 18 16 15 14
17 18 21 22 24 25 24 22 31 32 32 36 46 52 55 57 54 51 48 47 54 59 61 63 60 59 56 54 52 48 46 43 36 29 24 22 17 17 21 24 23 21 20
15 19 20 23 24 24 25 24 34 28 30 36 50 47 52 61 59 56 52 51 59 64 66 64 62 60 56 52 50 43 38 31 27 23 12 4 10 16 21 24 27 24 28
16 19 20 22 23 23 26 25 32 29 31 40 43 46 53 62 61 59 57 55 59 63 67 65 63 59 55 52 48 39 28 29 30 28 28 25 14 15 24 29 31 29 30
Wind_Direction_850mb
66 301 320 319 312 329 319 323 336 343 351 347 344 333 329 331 320 313 318 314 303 313 317 310 308 309 311 315 322 326 319 324 319 319 323 334 336 332 337 336 333 332 330
301 308 318 326 338 324 341 337 336 343 346 336 331 329 329 325 323 315 304 302 316 308 319 302 309 317 317 317 319 322 314 320 327 319 326 340 334 330 332 340 338 344 336
280 304 333 356 348 323 318 330 335 328 348 350 349 350 343 344 313 308 309 315 317 313 324 312 315 310 318 320 319 319 318 319 321 327 326 334 330 333 332 343 351 348 351
325 336 351 297 330 343 326 309 332 351 347 344 348 347 335 326 323 317 322 324 327 331 318 313 318 317 326 317 316 322 322 318 319 324 325 324 326 334 332 345 346 357 356
331 301 303 342 324 320 331 333 329 329 333 337 339 342 317 328 319 346 350 348 344 333 325 322 317 310 311 310 315 320 327 324 325 320 320 318 325 335 340 342 344 348 358
312 341 331 327 325 323 328 330 326 317 323 337 331 327 325 330 336 345 353 351 342 338 330 321 316 317 312 309 308 314 324 323 325 317 314 321 327 332 331 337 341 349 346
17 338 319 325 324 322 319 324 327 321 322 324 322 324 319 328 329 328 336 348 347 333 328 328 323 319 312 312 313 313 320 307 304 322 326 314 319 324 327 331 336 339 329
340 320 322 320 319 320 328 325 315 320 321 319 323 321 316 326 324 321 332 337 331 333 329 327 325 316 316 316 316 318 321 316 301 304 316 304 306 309 314 329 326 332 324
318 317 315 320 320 324 323 316 324 327 326 332 322 315 308 326 312 315 325 331 332 322 322 324 320 318 311 307 311 314 318 316 317 312 286 283 293 315 306 316 331 344 345
293 309 321 324 322 319 331 323 322 324 325 313 321 329 331 322 321 325 333 334 331 328 327 327 321 316 311 309 311 316 312 314 312 329 319 289 308 321 320 333 337 346 349
321 316 326 318 316 336 308 320 333 332 330 332 331 334 321 357 351 343 336 330 326 327 329 329 325 320 316 317 318 320 310 313 320 329 325 305 307 309 322 334 337 332 344
327 335 319 321 320 317 326 333 335 335 340 331 333 346 343 346 336 327 325 335 341 344 343 345 348 343 340 342 334 323 335 328 327 326 315 314 306 292 300 311 344 332 337
341 327 326 323 328 315 330 327 339 330 332 341 340 335 328 327 324 323 337 343 345 350 345 342 341 353 354 348 333 336 335 326 325 326 331 325 312 320 303 298 283 315 299
326 325 323 331 325 336 338 337 322 321 314 321 328 334 338 335 330 339 342 343 345 350 351 358 349 335 336 338 339 340 333 327 329 334 334 336 347 339 325 326 322 8 11
329 350 328 315 332 342 336 330 328 315 312 321 341 351 346 345 340 342 342 343 340 348 346 350 354 357 359 356 347 338 341 329 333 335 339 341 353 348 348 351 350 305 4
345 330 334 345 343 337 335 342 336 324 327 351 354 348 345 342 341 343 344 346 347 342 343 351 352 354 352 351 350 348 336 326 324 329 333 330 349 343 354 356 351 348 299
327 323 331 332 328 328 341 340 334 335 352 357 348 337 338 334 338 335 342 344 349 351 353 352 348 349 348 348 342 344 343 344 327 322 322 323 335 340 338 351 346 335 302
325 347 331 329 323 334 335 337 338 342 344 344 336 335 335 332 332 335 337 339 341 353 353 349 344 343 343 340 340 340 336 341 340 324 323 334 339 331 324 336 330 350 3
332 327 335 343 351 335 341 338 342 342 350 339 336 334 334 327 344 338 329 335 345 352 352 349 345 340 339 336 334 333 332 330 328 329 323 306 299 310 321 311 323 338 80
323 320 350 346 337 341 344 342 346 347 351 338 340 333 334 343 352 341 341 344 344 345 346 344 345 342 339 336 333 331 324 319 316 309 305 290 261 276 306 311 334 136 88
339 336 338 347 341 343 342 344 352 359 348 344 336 336 340 346 342 341 342 337 332 337 341 340 342 343 341 337 334 332 329 321 310 302 293 284 274 266 258 256 179 121 99
2 334 336 338 340 342 334 337 1 354 348 342 337 348 352 352 346 342 338 335 330 339 341 341 344 346 342 339 335 331 328 326 321 304 291 282 267 255 248 223 189 157 150
349 341 341 342 341 346 348 344 359 352 347 342 345 353 1 359 354 346 339 335 335 342 344 348 347 344 343 338 335 332 328 326 318 307 293 276 260 245 230 218 203 182 168
349 344 343 343 345 348 351 351 1 352 345 346 344 351 360 1 356 350 347 345 343 346 352 350 349 347 341 340 339 339 337 331 325 312 289 274 256 228 216 209 200 191 181
347 348 349 348 348 347 348 352 355 352 352 346 347 354 349 358 356 354 351 355 353 353 349 350 351 351 348 347 350 356 356 356 357 5 359 296 219 205 197 191 189 182 174
356 351 353 352 351 349 350 352 352 349 350 342 349 350 349 356 354 353 352 356 354 351 350 351 354 357 355 357 2 5 21 43 45 53 60 64 87 149 173 174 171 168 168